星链-5359 (STARLINK-5359 )

导读 | 星芒AI

STARLINK-5359 是 SpaceX 星链(Starlink)卫星互联网项目中的一颗低轨道通信卫星。它属于星链计划的第二批卫星(500 多颗),于 2021 年 5 月 由猎鹰 9 号火箭发射升空。该卫星运行在约 550 公里的轨道高度,旨在为全球用户提供高速、低延迟的互联网服务。STARLINK-5359 采用先进通信技术,支持 Ku 和 Ka 频段,具备自动避碰功能,以确保在密集的近地轨道环境中安全运行。

基本信息
目录编号:
54864
目录名称:
STARLINK-5359
国际标识:
2022-177AW
轨道中心:
EARTH
卫星名称:
星链-5359
卫星全名:
星链-5359 (STARLINK-5359 )
卫星状态:
在轨 (已飞行1089 天)
发射日期:
2022-12-28 UTC
国别 :
美国 (US)
星等 :
--
轨道信息
数据来源 国际轨道数据
星历时间: 2025-12-21T03:43:10+0800
17小时前
查看轨道信息
半长轴: 6937.21km
偏心率: 0.000121
轨道倾角: 43.002°
近地点辐角 280.648°
升交点赤经 188.677°
平近点角 79.422°
近地点: 558.233km
远地点: 559.913km
周期: 95.838分钟
每日圈数: 15.025382
详细信息
固有亮度:
5
最大亮度:
2.5
卫星平台:
Starlink v1.5
覆盖范围:
全球
运营商:
太空探索技术公司
运营商所在国:
美国
制造商(研发单位):
太空探索技术公司
制造商所在国:
美国
使用方式:
暂无
卫星简介
星链(Starlink)计划是由太空探索技术公司(SpaceX)提出的一个巨型低轨卫星互联网星座项目,计划在2019年至2024年间在太空搭建由约1.2万颗卫星组成的“星链”网络,其中1584颗将部署在地球上空550千米处的近地轨道,并从2020年开始工作。该卫星仍在工作。
2D轨道图
3D轨道图
轨道高度分析图
轨道倾角分析图
轨道综合分析图
查看轨道综合分析图